Regional Weather Roundup
Issued by NWS Charleston, SC

Current Version | Previous Version | Graphics & Text | Print | Product List | Glossary On
Versions: 1 2 3 4 5 6 7 8 9 10 11 12 13 14 15 16 17 18 19 20 21 22 23 24 25 26 27 28 29 30 31 32 33 34 35 36 37 38 39 40 41 42 43 44 45 46 47 48 49 50
000 ASUS42 KCHS 181925 RWRCHS REGIONAL WEATHER ROUNDUP NATIONAL WEATHER SERVICE CHARLESTON SC 200 PM EST THU DEC 18 2014 NOTE: "FAIR" INDICATES FEW OR NO CLOUDS BELOW 12,000 FEET WITH NO SIGNIFICANT WEATHER AND/OR OBSTRUCTIONS TO VISIBILITY. NOT ALL STATIONS ARE QUALITY CONTROLLED BY THE NATIONAL WEATHER SERVICE. USE DATA WITH CAUTION...ESPECIALLY DEWPOINT OBSERVATIONS. SCZ027-030-031-034>040-042>050-182000- ...SOUTHEAST SOUTH CAROLINA... CITY SKY/WX TMP DP RH WIND PRES REMARKS N CHARLESTON MOSUNNY 62 41 46 SE5 30.08F WATERFRONT PRK N/A 57 N/A N/A E9 N/A MOUNT PLEASANT LGT RAIN 61 46 59 SE3 30.09R PINOPOLIS N/A 55 45 67 NW7 30.01F MONCKS CORNER FAIR 61 43 51 N5 30.08S SUMMERVILLE FAIR 64 43 45 SW3 30.08F BEAUFORT MCAS MOSUNNY 61 41 47 CALM 30.08F BEAUFORT ARPT FAIR 61 46 59 S3 30.08F HILTON HEAD IS SUNNY 57 45 62 CALM 30.11F WALTERBORO CLEAR 63 36 36 CALM 30.07F ALLENDALE FAIR 61 43 51 CALM 30.07F ...SOUTHERN MIDLANDS AND PEE DEE... CITY SKY/WX TMP DP RH WIND PRES REMARKS GEORGETOWN NOT AVBL KINGSTREE NOT AVBL ORANGEBURG MOSUNNY 60 38 43 E6 30.08F BARNWELL FAIR 63 43 48 CALM 30.08F AIKEN FAIR 59 37 44 CALM 30.10F MANNING NOT AVBL COLUMBIA MOSUNNY 58 31 35 SE7 30.09F SUMTER MOSUNNY 56 29 34 CALM 30.08F FLORENCE MOSUNNY 57 26 30 E5 30.09F MYRTLE BEACH SUNNY 55 30 38 SE8 30.11F N MYRTLE BEACH SUNNY 56 34 43 S5 30.09F $$ GAZ063-065-086>088-099>101-113>116-118-119-134>141-150-182000- ...SOUTHEAST GEORGIA... CITY SKY/WX TMP DP RH WIND PRES REMARKS SAVANNAH ARPT MOSUNNY 62 38 40 VRB5 30.09F HUNTER AAF SUNNY 62 39 43 N3 30.07F FORT STEWART SUNNY 62 36 37 VRB1 30.08F STATESBORO SUNNY 61 40 47 W3 30.08F SYLVANIA CLEAR 62 43 49 CALM 30.09F CLAXTON FAIR 63 39 42 W6 30.09F ...CSRA...CENTRAL AND FAR SOUTHEAST GEORGIA... CITY SKY/WX TMP DP RH WIND PRES REMARKS THOMSON PTSUNNY 60 42 52 CALM 30.13F AUGUSTA-BUSH MOSUNNY 60 39 45 CALM 30.09F AUGUSTA-DANIEL MOSUNNY 59 40 49 CALM 30.09F SWAINSBORO FAIR 63 43 48 W3 30.09F VIDALIA SUNNY 63 36 36 CALM 30.09F EASTMAN FAIR 64 33 31 W3 30.11F HAZLEHURST FAIR 65 36 33 CALM 30.08F ALMA SUNNY 64 33 31 VRB5 30.10F WAYCROSS SUNNY 66 34 31 W3 30.10F JESUP FAIR 64 39 39 W3 30.09F BAXLEY FAIR 64 34 32 CALM 30.09F BRUNSWICK SUNNY 64 32 29 W3 30.09F SAINT SIMONS MOSUNNY 60 41 49 SW8 30.09F $$ SCZ027-028-034-036>038-045-046-048>050-GAZ119-141-182000- ...LAKE AND SUPPLEMENTAL COASTAL OBSERVATIONS... STATION/POSITION TIME TEMP WIND PRES WAVE SWELL AIR SEA DIR/SP/G HT/PER HT/PER/DIR (UTC) (F) (DEG/KT/KT) (MB) (FT/S) (FT/S/D) UPR LAKE MARION NOT AVBL WINYAH BAY 1900 52 60/ 10 1018.0S LAKE MURRAY 1900 55 220/ 3/ 4 1018.3F ACE BASIN NERRS 1900 58 180/ 1 1019.0S FORT PULASKI 1900 56 56 340/ 2/ 2 1019.3F SAPELO ISLAND 1900 61 230/ 2 1019.0S $$ ANZ835-935-AMZ111-154-330-350-352-354-370-450-454-472-182000- ...C-MAN AND BUOY OBSERVATIONS... STATION/POSITION TIME TEMP WIND PRES WAVE SWELL AIR SEA DIR/SP/G HT/PER HT/PER/DIR (UTC) (F) (DEG/KT/KT) (MB) (FT/S) (FT/S/D) BUOY 41004 1900 61 73 300/ 2/ 6 1018.5F 1/10 2/10 BUOY 41008 1800 51 58 270/ 4/ 8 1020.3F 1/10 2/100/10 FOLLY BEACH CMAN 1900 55 80/ 8/ 9 1019.4F CAPERS NEARSHORE 1800 55 70/ 12/ 12 N/A FRIPP NEARSHORE NOT AVBL STATION/POSITION TIME TEMP WIND PRES WAVE SWELL AIR SEA DIR/SP/G HT/PER HT/PER/DIR (UTC) (F) (DEG/KT/KT) (MB) (FT/S) (FT/S/D) 5E ST. MARYS GA 1900 61 N/A 1/10 FRYING PAN BUOY 1900 55 65 30/ 10/ 12 1019.5F 3/ 5 2/ 20/ 5 BUOY 41025 1900 48 1019.5F 3/ 6 CAPE LOOKOUT NC 1900 49 360/ 7/ 9 1018.9F BUOY 41002 NOT AVBL BUOY 41010 1900 72 76 290/ 10/ 12 1018.8F 2/10 2/ 80/10 ST AUGUSTINE FL 1900 60 300/ 2/ 4 1020.3F $$

USA.gov is the U.S. government's official web portal to all federal, state and local government web resources and services.